User: anonymous   Login
Location: Knowlton
(51.2333°N, 1.2667°E)
Time: 05:20:27
(UTC+00:00)
Language:

Cosmos 482 Debris - Orbit

View from above orbital plane
View from above orbital plane
View from above satellite
View from above satellite

Ground track
Ground track

The orbit data is extracted from the following two-line orbital elements,

1 06073U 72023E   21171.50288030  .00012855  55310-5  53830-4 0  9991
2 06073  52.0404 219.6249 1271382 258.0019  87.5923 13.26915668550714
Epoch (UTC): 20 June 2021 12:04:08
Eccentricity: 0.1271382
inclination: 52.0404°
perigee height: 200 km
apogee height: 2116 km
right ascension of ascending node: 219.6249°
argument of perigee: 258.0019°
revolutions per day: 13.26915668
mean anomaly at epoch: 87.5923°
orbit number at epoch: 55071

The dashed part of the orbit path shows where the satellite is in the earth's shadow,  

DLR